Overview Statistics Trail Chart Weather Telemetry Raw packets
 

This is the latest recevied weather packets stored in our database for station/object HB9FHL-13. If no packets are shown the sender has not sent any weather packets the latest 10 day(s).

<< 118 119 120 121 122 123 124 >>
Time Temp. Humidity Pressure Rain* Wind** Luminosity Snow
1787924995 18.33° C - 1019.1 hPa 0.76 mm - - -
1787924698 18.33° C - 1016.5 hPa 0.76 mm - - -
1787924695 18.33° C - 1016.5 hPa 0.76 mm - - -
1787924091 17.78° C - 1018.6 hPa 0.76 mm - - -
1787924087 17.78° C - 1018.6 hPa 0.76 mm - - -
1787923829 18.33° C - 1018.4 hPa 0.76 mm - - -
1787923785 18.33° C - 1018.4 hPa 0.76 mm - - -
1787923490 18.33° C - 1018.9 hPa 0.76 mm - - -
1787923485 18.33° C - 1018.9 hPa 0.76 mm - - -
1787923187 18.89° C - 1019.8 hPa 0.76 mm - - -
1787923183 18.89° C - 1019.8 hPa 0.76 mm - - -
1787922882 17.78° C - 1015.9 hPa 0.51 mm - - -
1787922586 17.78° C - 1013.8 hPa 0.51 mm - - -
1787922582 17.78° C - 1013.8 hPa 0.51 mm - - -
1787922281 17.22° C - 1017.6 hPa 0.51 mm - - -
1787921985 17.22° C - 1016.2 hPa 0.51 mm - - -
1787921981 17.22° C - 1016.2 hPa 0.51 mm - - -
1787921730 17.78° C - 1018.4 hPa 0.51 mm - - -
1787921682 17.78° C - 1018.4 hPa 0.51 mm - - -
1787921678 17.78° C - 1018.4 hPa 0.51 mm - - -
1787921381 17.78° C - 1018.1 hPa 0.51 mm - - -
1787921378 17.78° C - 1018.1 hPa 0.51 mm - - -
1787921078 17.22° C - 1017.8 hPa 0.51 mm - - -
1787920772 17.22° C - 1015.8 hPa 0.25 mm - - -
1787920477 17.78° C - 1010.1 hPa 0 mm - - -

* Rain since midnight (hover to see other rain measurements)
** Current wind speed in m/s (hover to see current wind gust speed)